sat.trackr.live / text

‹ back to catalog

STARLINK-36789

NORAD 68118 · 2026-044T

PAYLOAD ACTIVE UNKNOWN

§ Identity

Operator
Country
US
Launch date
2026-03-08
Launch site
AFWTR
Launch vehicle
Mass (kg)
RCS (m²)

Purposes: comms

External: N2YO · Heavens-Above · Gunter

§ Orbital elements

Epoch: 2026-05-25T03:40:23.170080Z

Period
93.91 min
Inclination
97.2844°
Eccentricity
0.0001955
Mean motion
15.33454514 rev/d
Perigee alt
464.2 km
Apogee alt
466.9 km
Semi-major
6,843.7 km
B*
5.2898e-4
RAAN
105.8200°
Arg perigee
97.4396°
Mean anomaly
262.7069°
Rev number
1,330

§ Raw data

STARLINK-367891 68118U 26044T   26145.15304595  .00017047  00000+0  52898-3 0  99932 68118  97.2844 105.8200 0001955  97.4396 262.7069 15.33454514 13308

JSON: /api/v1/satellites/68118 · /tle

For live sub-satellite position, see the globe view (requires WebGL).

§ Visibility from observer

Set your observer location to see the next 7 days of passes ≥ 10°. The values pass through the URL so the page stays shareable.

No JS? Fill the form by hand. The geolocation button needs JavaScript.